Location: Casteau
(50.5142°N, 4.0161°E)
Time: 03:03:19
(UTC+00:00)

Transit 2A - Pass Details

Date: 04 August 2021
Orbit: 594 x 964 km, 66.7° (Epoch: 27 September)

Event Time Altitude Azimuth Distance (km) Brightness Sun altitude
Rises 08:42:02 0° 291° (WNW) 2,971 8.6 39.9°
Reaches altitude 10° 08:45:24 10° 318° (NW) 2,130 8.0 40.4°
Maximum altitude 08:47:54 14° 349° (N) 1,933 8.0 40.8°
Drops below altitude 10° 08:50:31 10° 20° (NNE) 2,250 8.5 41.1°
Sets 08:54:16 0° 46° (NE) 3,269 9.5 41.7°
